Weather History for KDDH - July, 2013

Change the Weather History Date:

Wednesday, July 24, 2013

  Actual Average Record
Temperature  
Mean Temperature 63 °F 68 °F  
Max Temperature 76 °F 80 °F 91 °F (2001)
Min Temperature 50 °F 57 °F 50 °F (2005)
Degree Days  
Heating Degree Days 2 1  
Month to date heating degree days 2 24  
Since 1 June heating degree days 102 121  
Since 1 July heating degree days 2 24  
Cooling Degree Days 0 4  
Month to date cooling degree days 241 95  
Year to date cooling degree days 371 167  
Since 1 June cooling degree days 339 153  
Growing Degree Days 15 (Base 50)    
Moisture  
Dew Point 60 °F    
Average Humidity 73    
Maximum Humidity 93    
Minimum Humidity 53    
Precipitation  
Precipitation 0.00 in 0.14 in 0.68 in (2008)
Month to date precipitation 5.30 3.35  
Year to date precipitation 27.06 22.55  
Sea Level Pressure  
Sea Level Pressure 29.73 in    
Wind  
Wind Speed 4 mph (West)    
Max Wind Speed 14 mph    
Max Gust Speed 21 mph    
Visibility 7 miles    
Events      
T = Trace of Precipitation, MM = Missing Value Source: NWS Daily Summary

Daily Weather History Graph

Daily Weather History Graph

Search for Another Location

Airport or City:

Trip Planner

Search our weather history database for the weather conditions in past years. The results will help you decide how hot, cold, wet, or windy it might be!

Date:

Astronomy

Jul. 24, 2013 Rise Set
Actual Time 5:36 AM EDT 8:22 PM EDT
Civil Twilight 5:03 AM EDT 8:55 PM EDT
Nautical Twilight 4:21 AM EDT 9:36 PM EDT
Astronomical Twilight 3:33 AM EDT 10:24 PM EDT
Moon 9:20 PM EDT (7/24) 7:57 AM EDT (7/24)
Length of Visible Light 15h 51m
Length of Day
14h 45m
Waning Gibbous, 95% of the Moon is Illuminated
Jul 24
Waning Gibbous
Jul 29
Last Quarter
Aug 6
New
Aug 14
First Quarter
Aug 20
Full

Hourly Weather History & Observations

Time (EDT) Temp. Dew Point Humidity Pressure Visibility Wind Dir Wind Speed Gust Speed Precip Events Conditions
12:09 AM 64.4 °F 64.4 °F 100% 29.64 in 1.5 mi Calm Calm - N/A   Clear
12:26 AM 64.4 °F 64.4 °F 100% 29.64 in 2.0 mi Calm Calm - N/A   Clear
12:28 AM 64.4 °F 62.6 °F 94% 29.64 in 1.5 mi Calm Calm - N/A   Partly Cloudy
12:41 AM 64.4 °F 62.6 °F 94% 29.64 in 1.0 mi Calm Calm - N/A   Mist
12:51 AM 64.4 °F 62.6 °F 94% 29.64 in 3.0 mi Calm Calm - N/A   Mostly Cloudy
12:54 AM 64.0 °F 63.0 °F 96% 29.63 in 9.0 mi Calm Calm - N/A   Mostly Cloudy
1:02 AM 62.6 °F 62.6 °F 100% 29.64 in 1.5 mi Calm Calm - N/A   Mostly Cloudy
1:10 AM 62.6 °F 62.6 °F 100% 29.64 in 0.8 mi Calm Calm - N/A   Mist
1:18 AM 64.4 °F 62.6 °F 94% 29.64 in 1.5 mi Calm Calm - N/A   Mostly Cloudy
1:26 AM 62.6 °F 60.8 °F 94% 29.65 in 3.0 mi South 3.5 mph - N/A   Mostly Cloudy
1:34 AM 62.6 °F 60.8 °F 94% 29.64 in 8.0 mi Calm Calm - N/A   Scattered Clouds
1:54 AM 64.0 °F 62.1 °F 93% 29.63 in 1.2 mi Calm Calm - N/A   Partly Cloudy
1:58 AM 64.4 °F 62.6 °F 94% 29.64 in 4.0 mi Calm Calm - N/A   Partly Cloudy
2:54 AM 63.0 °F 61.0 °F 93% 29.62 in 7.0 mi Calm Calm - N/A   Clear
3:23 AM 62.6 °F 62.6 °F 100% 29.64 in 1.8 mi Calm Calm - N/A   Clear
3:34 AM 62.6 °F 62.6 °F 100% 29.64 in 3.0 mi Calm Calm - N/A   Mostly Cloudy
3:54 AM 64.0 °F 63.0 °F 96% 29.63 in 7.0 mi Calm Calm - N/A   Overcast
4:33 AM 64.4 °F 62.6 °F 94% 29.64 in 5.0 mi Calm Calm - N/A   Overcast
4:54 AM 64.9 °F 63.0 °F 93% 29.63 in 8.0 mi SSW 3.5 mph - N/A   Overcast
5:35 AM 64.4 °F 64.4 °F 100% 29.65 in 7.0 mi Calm Calm - N/A   Overcast
5:54 AM 68.0 °F 64.9 °F 90% 29.64 in 10.0 mi SSW 5.8 mph - N/A   Overcast
6:54 AM 69.1 °F 64.9 °F 87% 29.67 in 9.0 mi SW 5.8 mph - N/A   Overcast
7:20 AM 68.0 °F 64.4 °F 88% 29.69 in 10.0 mi Variable 6.9 mph - N/A   Overcast
7:54 AM 69.1 °F 62.1 °F 78% 29.70 in 10.0 mi WSW 8.1 mph - N/A   Mostly Cloudy
8:54 AM 69.1 °F 60.1 °F 73% 29.73 in 10.0 mi Variable 5.8 mph - N/A   Overcast
9:54 AM 70.0 °F 60.1 °F 71% 29.74 in 10.0 mi West 10.4 mph - N/A   Overcast
10:54 AM 70.0 °F 59.0 °F 68% 29.76 in 10.0 mi West 8.1 mph - N/A   Overcast
11:21 AM 71.6 °F 60.8 °F 69% 29.78 in 10.0 mi Variable 4.6 mph - N/A   Overcast
11:54 AM 71.1 °F 59.0 °F 66% 29.78 in 10.0 mi West 4.6 mph - N/A   Overcast
12:54 PM 73.0 °F 57.0 °F 57% 29.78 in 10.0 mi WNW 8.1 mph - N/A   Mostly Cloudy
1:54 PM 75.9 °F 57.9 °F 54% 29.78 in 10.0 mi WNW 5.8 mph 17.3 mph N/A   Partly Cloudy
2:54 PM 73.0 °F 55.0 °F 53% 29.79 in 10.0 mi Variable 6.9 mph 16.1 mph N/A   Mostly Cloudy
3:54 PM 72.0 °F 54.0 °F 53% 29.81 in 10.0 mi West 4.6 mph - N/A   Overcast
4:54 PM 69.1 °F 55.9 °F 63% 29.83 in 10.0 mi NW 3.5 mph - N/A   Overcast
5:54 PM 69.1 °F 55.9 °F 63% 29.85 in 10.0 mi NW 4.6 mph - N/A   Overcast
6:54 PM 66.9 °F 53.1 °F 61% 29.88 in 10.0 mi NW 6.9 mph - N/A   Partly Cloudy
7:54 PM 63.0 °F 53.1 °F 70% 29.90 in 10.0 mi NW 5.8 mph - N/A   Partly Cloudy
8:54 PM 61.0 °F 52.0 °F 72% 29.94 in 10.0 mi NNW 6.9 mph - N/A   Mostly Cloudy
9:54 PM 59.0 °F 51.1 °F 75% 29.98 in 10.0 mi Calm Calm - N/A   Mostly Cloudy
10:54 PM 55.0 °F 51.1 °F 86% 30.00 in 10.0 mi Calm Calm - N/A   Clear
11:54 PM 54.0 °F 48.9 °F 83% 30.03 in 10.0 mi Calm Calm - N/A   Clear